This demonstration page uses our WeatherBlox Daily Observations layout. Learn more.

Left ArrowRight Arrow

39.29038, -76.61219

Hourly Observations for October 3, 2022

Temp ( °F °C ) Dew Point ( °F °C ) Humidity (%) Winds ( mph kmh ) Pressure ( in mb ) Visibility ( mi km ) Precip ( " mm )
12:54 am 00:54 undefined 53 11.7 47 8.3 80 80 undefined N/A 30.16 1021 N/A 0.02 0.51
1:54 am 01:54 undefined 51 10.6 43 6.1 74 74 undefined N/A 30.16 1021 N/A 0.02 0.51
2:54 am 02:54 undefined 51 10.6 44 6.7 77 77 undefined N/A 30.16 1021 N/A 0.04 1.02
3:54 am 03:54 undefined 50 10 44 6.7 80 80 undefined N/A 30.16 1021 N/A 0.06 1.52
4:54 am 04:54 undefined 49 9.4 43 6.1 80 80 undefined N/A 30.16 1021 N/A 0.08 2.03
5:54 am 05:54 undefined 49 9.4 42 5.6 77 77 undefined N/A 30.16 1022 N/A 0.04 1.02
6:54 am 06:54 undefined 49 9.4 41 5 74 74 undefined N/A 30.18 1022 N/A 0.00 0.00
7:54 am 07:54 undefined 49 9.4 42 5.6 77 77 undefined N/A 30.20 1023 N/A 0.01 0.25
8:54 am 08:54 undefined 50 10 42 5.6 74 74 undefined N/A 30.21 1023 N/A 0.01 0.25
9:54 am 09:54 undefined 51 10.6 43 6.1 74 74 undefined N/A 30.23 1024 N/A 0.00 0.00
10:54 am 10:54 undefined 53 11.7 42 5.6 66 66 undefined N/A 30.24 1024 N/A 0.00 0.00
11:54 am 11:54 undefined 54 12.2 41 5 61 61 undefined N/A 30.23 1024 N/A 0.00 0.00
12:54 pm 12:54 undefined 55 12.8 41 5 59 59 undefined N/A 30.23 1024 N/A 0.00 0.00
1:54 pm 13:54 undefined 54 12.2 41 5 61 61 undefined N/A 30.22 1023 N/A 0.00 0.00
2:54 pm 14:54 undefined 52 11.1 43 6.1 71 71 undefined N/A 30.19 1023 N/A 0.01 0.25
3:54 pm 15:54 undefined 52 11.1 42 5.6 69 69 undefined N/A 30.19 1022 N/A 0.01 0.25
4:54 pm 16:54 undefined 53 11.7 41 5 63 63 undefined N/A 30.16 1022 N/A 0.01 0.25
5:54 pm 17:54 undefined 53 11.7 41 5 63 63 undefined N/A 30.20 1023 N/A 0.01 0.25
6:54 pm 18:54 undefined 52 11.1 41 5 66 66 undefined N/A 30.19 1023 N/A 0.00 0.00
7:54 pm 19:54 undefined 51 10.6 43 6.1 74 74 undefined N/A 30.19 1022 N/A 0.00 0.00
8:54 pm 20:54 undefined 51 10.6 44 6.7 77 77 undefined N/A 30.19 1022 N/A 0.03 0.76
9:54 pm 21:54 undefined 51 10.6 45 7.2 79 79 undefined N/A 30.19 1022 N/A 0.06 1.52
10:54 pm 22:54 undefined 50 10 44 6.7 80 80 undefined N/A 30.18 1022 N/A 0.08 2.03
11:54 pm 23:54 undefined 50 10 43 6.1 77 77 undefined N/A 30.16 1021 N/A 0.12 3.05

Powered by AerisWeather